Flag for Canada Weather past 2 weeks in Longueuil, Quebec, Canada

Now
21 °F

Cold.


Feels Like: 16 °F
Forecast: 5 / 28 °F
Wind: 3 mph from North

Location: Mc Tavish

Current Time: Jan 30, 2015 at 3:30:44 PM

Latest Report: Jan 30, 2015 at 2:00 PM


Visibility: N/A

Pressure: 29.91 "Hg

Humidity: 65%

Dew point: 11 °F

Location of LongueuilLocation

Historic Weather in Longueuil — Graph

°F

Longueuil temperature yesterday

Maximum temperature yesterday: 30 °F (at 9:00 PM)
Minimum temperature yesterday: 9 °F (at 7:00 AM)
Average temperature yesterday: 18 °F

Past Weeks' High & Low Weather Summary

 TemperatureHumidityPressure
High38 °F (Jan 18, 5:00 PM)100% (Jan 19, 2:00 AM)30.42 "Hg (Jan 19, 2:00 AM)
Low-10 °F (Jan 17, 6:00 AM)33% (Jan 28, 11:00 AM)29.28 "Hg (Jan 25, 1:00 AM)
Average15 °F68%29.96 "Hg
* Reported Jan 15 2:00 PM — Jan 30 2:00 PM, Longueuil, Weather by CustomWeather, © 2014

Note: Actual official high and low records may vary slightly from our data, if they occured in-between our weather recording intervals... More about our weather records

Advertising

Longueuil weather history for previous 24 hours

 ConditionsComfort  
Time TempWeatherWind HumidityBarometerVisibility
2:00 PM
Jan 30
21 °FCold.3 mph65%29.91 "HgN/A
1:00 PM22 °FCold.2 mph75%29.89 "HgN/A
12:00 PM23 °FCold.5 mph86%29.88 "HgN/A
11:00 AM26 °FChilly.5 mph88%29.88 "HgN/A
10:00 AM26 °FChilly.5 mph90%29.85 "HgN/A
9:00 AM26 °FChilly.3 mph91%29.82 "HgN/A
8:00 AM27 °FChilly.2 mph95%29.80 "HgN/A
7:00 AM27 °FChilly.3 mph95%29.78 "HgN/A
6:00 AM27 °FChilly.5 mph95%29.78 "HgN/A
5:00 AM27 °FChilly.2 mph94%29.78 "HgN/A
4:00 AM27 °FChilly.5 mph90%29.77 "HgN/A
3:00 AM28 °FChilly.2 mph83%29.76 "HgN/A
2:00 AM28 °FChilly.2 mph83%29.78 "HgN/A
1:00 AM28 °FChilly.3 mph90%29.78 "HgN/A
12:00 AM28 °FChilly.2 mph91%29.79 "HgN/A
11:00 PM
Jan 29
27 °FChilly.3 mph94%29.81 "HgN/A
10:00 PM30 °FChilly.5 mph57%29.81 "HgN/A
9:00 PM30 °FChilly.5 mph56%29.82 "HgN/A
8:00 PM22 °FCold.2 mph89%29.87 "HgN/A
7:00 PM21 °FCold.2 mph59%29.90 "HgN/A
6:00 PM19 °FCold.2 mph59%29.94 "HgN/A
5:00 PM20 °FCold.2 mph60%29.97 "HgN/A
4:00 PM20 °FCold.1 mph51%29.98 "HgN/A
3:00 PM22 °FCold.3 mph47%30.00 "HgN/A
Weather by CustomWeather, © 2014

See weather overviewHow to use our weather pages